[[{"header":{"parameterUnit":"m.s-1","parameterCategory":1,"la1":30.2991,"la2":30.254,"lo1":-89.0895,"lo2":-89.0444,"dy":0.0017,"dx":0.0017,"nx":28,"ny":28,"refTime":"2024-08-30T21:00:00:Z","depth":0,"parameterNumber":2,"parameterNumberName":"U-component_of_WINDS"},"data":[0,0,0,0,0,0,0,0,0,0,0,0,0,0,0,0,0,0,0,0,0,0,0,0,0,0,0,0,0,0,0,0,0,0,0,0,0,0,0,0,0,0,0,0,0,0,0,0,0,0,0,0,0,0,0,0,0,0,-3.336,-3.3361,0,-3.344,-3.3441,-3.3442,-3.3321,-3.3317,-3.3313,-3.3309,-3.3396,-3.3402,-3.3408,0,0,0,0,0,0,0,0,0,0,0,0,0,-3.3107,-3.3112,-3.336,-3.3361,-3.3362,-3.344,-3.3441,-3.3442,-3.3322,-3.3317,-3.3312,-3.3307,-3.3394,-3.3402,-3.3409,0,0,0,0,0,0,0,0,0,0,0,0,0,-3.3205,-3.3114,-3.336,-3.3311,-3.3308,-3.344,-3.3441,-3.3442,-3.3323,-3.3317,-3.331,-3.3305,-3.3392,-3.3401,-3.341,-3.3595,0,0,-3.3439,-3.3443,0,0,0,0,0,0,0,0,-3.32,-3.3215,-3.3317,-3.3315,-3.3311,-3.3364,-3.3384,-3.3494,-3.3325,-3.3318,-3.3309,-3.3301,-3.3391,-3.34,-3.3429,-3.3599,-3.3603,-3.344,-3.3445,-3.3449,-3.3452,0,0,0,0,0,0,0,-3.3193,-3.321,-3.3392,-3.3319,-3.3315,-3.3287,-3.3294,-3.3404,-3.3389,-3.3318,-3.3309,-3.332,-3.3388,-3.342,-3.343,-3.3604,-3.3439,-3.3448,-3.3453,-3.3457,-3.3929,-3.3935,0,0,0,0,0,0,-3.3191,-3.3206,-3.3389,-3.3394,-3.3238,-3.3297,-3.3304,-3.3354,-3.3387,-3.3386,-3.3325,-3.3314,-3.3407,-3.3419,-3.3433,-3.3651,-3.3449,-3.3458,-3.3463,-3.3922,-3.393,-3.3938,0,0,0,0,0,0,-3.3186,-3.3209,-3.3386,-3.3297,-3.3318,-3.3308,-3.3364,-3.3358,-3.339,-3.3393,-3.339,-3.3361,-3.3403,-3.342,-3.3555,-3.3652,-3.3462,-3.3471,-3.3914,-3.3925,-3.3934,-3.4089,0,0,0,0,0,0,-3.318,-3.3208,-3.3277,-3.33,-3.3323,-3.3506,-3.337,-3.3365,-3.3406,-3.3392,-3.3426,-3.3425,-3.3399,-3.3542,-3.3564,-3.3662,-3.3478,-3.3905,-3.3919,-3.3931,-3.4075,-3.4103,-3.4127,0,0,0,0,0,-3.3171,-3.3319,-3.3281,-3.3304,-3.3409,-3.3511,-3.3525,-3.3491,-3.3415,-3.3485,-3.3486,-3.3424,-3.3638,-3.3556,-3.3581,-3.3683,-3.3899,-3.3915,-3.393,-3.4063,-3.4097,-3.4126,0,0,0,0,0,0,-3.3309,-3.3321,-3.3279,-3.3438,-3.3475,-3.3491,-3.3578,-3.3528,-3.3588,-3.3573,-3.3529,-3.3538,-3.3683,-3.3696,-3.3605,-3.3863,-3.3756,-3.3777,-3.3849,-3.3882,-3.3907,-3.3901,-3.3486,0,0,0,0,0,-3.3358,-3.3439,-3.3445,-3.3585,-3.3605,-3.3589,-3.3632,-3.3603,-3.3639,-3.3654,-3.3666,-3.3705,-3.3781,-3.3832,-3.3902,-3.4076,-3.4082,-3.4158,-3.4184,-3.4206,-3.4225,-3.4318,-3.4352,-3.3989,-3.3989,-3.3988,0,0,-3.346,-3.3476,-3.353,-3.3613,-3.3638,-3.3723,-3.3603,-3.3699,-3.3762,-3.367,-3.3797,-3.3807,-3.3848,-3.4004,-3.4073,-3.4019,-3.4326,-3.4226,-3.4243,-3.425,-3.4337,-3.4371,-3.4402,-3.3999,-3.3997,-3.3996,0,0,-3.3689,-3.371,-3.3828,-3.3855,-3.3893,-3.3881,-3.391,-3.3934,-3.3936,-3.4063,-3.3995,-3.4071,-3.4203,-3.4234,-3.4268,-3.4509,-3.4454,-3.4534,-3.467,-3.4761,-3.479,-3.4815,-3.4901,-3.4932,-3.4552,-3.4553,-3.4553,0,-3.3812,-3.3937,-3.3896,-3.3996,-3.4035,-3.3953,-3.4073,-3.4101,-3.4162,-3.4191,-3.413,-3.4292,-3.4315,-3.4476,-3.4535,-3.4565,-3.4597,-3.4529,-3.4789,-3.4814,-3.4836,-3.4918,-3.495,-3.4562,-3.4561,-3.456,-3.4559,0,-3.4085,-3.4173,-3.4264,-3.4322,-3.4371,-3.4481,-3.4458,-3.4513,-3.4479,-3.4474,-3.4605,-3.4628,-3.4701,-3.4737,-3.4706,-3.4895,-3.486,-3.4795,-3.4687,-3.4881,-3.4957,-3.4988,-3.4575,-3.4572,-3.4569,-3.4567,0,0,-3.4404,-3.4437,-3.4471,-3.4496,-3.4532,-3.46,-3.4707,-3.4776,-3.4824,-3.4869,-3.4957,-3.507,-3.501,-3.5048,-3.502,-3.51,-3.5289,-3.5024,-3.5024,-3.5072,-3.5498,-3.5547,-3.5583,-3.5253,-3.5259,-3.5263,-3.5494,0,-3.4632,-3.4814,-3.478,-3.4958,-3.5039,-3.4962,-3.5055,-3.5088,-3.5087,-3.5156,-3.5155,-3.5235,-3.5149,-3.5172,-3.5248,-3.525,-3.5374,-3.5233,-3.5336,-3.534,-3.5327,-3.5623,-3.5675,-3.5892,-3.5524,-3.5529,-3.5532,0,-3.4922,-3.4975,-3.5161,-3.5183,-3.5216,-3.53,-3.5361,-3.5428,-3.5464,-3.5457,-3.55,-3.5457,-3.5564,-3.5454,-3.5602,-3.5507,-3.5547,-3.5555,-3.5562,-3.557,-3.5448,-3.5639,-3.596,-3.5993,-3.5579,-3.5575,-3.5572,0,-3.5135,-3.5253,-3.5379,-3.5403,-3.5433,-3.5494,-3.5509,-3.5539,-3.5583,-3.5637,-3.5665,-3.5732,-3.5769,-3.5822,-3.5798,-3.572,-3.5951,-3.5839,-3.5949,-3.595,-3.6,-3.5997,-3.6332,-3.6028,-3.6027,-3.6027,-3.6026,0,-3.5393,-3.551,-3.5475,-3.5553,-3.5681,-3.5642,-3.5771,-3.5777,-3.5805,-3.5883,-3.5822,-3.5897,-3.5861,-3.5935,-3.5917,-3.6042,-3.606,-3.6058,-3.6052,-3.6063,-3.6063,-3.6089,-3.6073,-3.6035,-3.6033,-3.6032,-3.603,0,-3.5652,-3.5634,-3.5766,-3.5783,-3.579,-3.5884,-3.5899,-3.5972,-3.5966,-3.6066,-3.6087,-3.6078,-3.6161,-3.6142,-3.6234,-3.6222,-3.6379,-3.6355,-3.6367,-3.636,-3.6471,-3.6461,-3.6834,-3.688,-3.6546,-3.655,-3.6552,0,-3.5818,-3.5905,-3.5931,-3.5978,-3.5998,-3.6075,-3.6119,-3.6084,-3.6132,-3.618,-3.6248,-3.6325,-3.6384,-3.6521,-3.6524,-3.6594,-3.657,-3.6696,-3.658,-3.6588,-3.6571,-3.6566,-3.6574,-3.6719,-3.6722,-3.6726,-3.6728,0,-3.6113,-3.6099,-3.6164,-3.6226,-3.628,-3.6327,-3.6369,-3.6412,-3.6381,-3.6439,-3.6521,-3.6568,-3.666,-3.6738,-3.6803,-3.682,-3.677,-3.6765,-3.6793,-3.6806,-3.6808,-3.6808,-3.6428,-3.6756,-3.6753,-3.6751,-3.675,-3.6749,-3.6329,-3.6403,-3.6433,-3.6507,-3.6534,-3.6575,-3.6644,-3.6646,-3.6714,-3.6785,-3.6761,-3.6856,-3.689,-3.6971,-3.6997,-3.7071,-3.7024,-3.7067,-3.7077,-3.7088,-3.7101,-3.6797,-3.7083,-3.7082,-3.7082,-3.7081,-3.708,0,-3.662,-3.6635,-3.6704,-3.6764,-3.6823,-3.6768,-3.6812,-3.6865,-3.6949,-3.6984,-3.7044,-3.714,-3.7214,-3.7223,-3.7294,-3.7352,-3.7331,-3.7372,-3.7367,-3.7372,-3.7139,-3.7107,-3.7388,-3.7388,-3.7388,-3.7388,-3.7388,-3.7387,-3.6779,-3.69,-3.6891,-3.7026,-3.704,-3.7131,-3.7161,-3.7198,-3.7226,-3.7335,-3.7396,-3.74,-3.7426,-3.7498,-3.7565,-3.7565,-3.7594,-3.7644,-3.7636,-3.7419,-3.7388,-3.7359,-3.7328,-3.7651,-3.7651,-3.7862,-3.7863,-3.7865]},{"header":{"parameterUnit":"m.s-1","parameterCategory":1,"la1":30.2991,"la2":30.254,"lo1":-89.0895,"lo2":-89.0444,"dy":0.0017,"dx":0.0017,"nx":28,"ny":28,"refTime":"2024-08-30T21:00:00:Z","depth":0,"parameterNumber":3,"parameterNumberName":"V-component_of_WINDS"},"data":[0,0,0,0,0,0,0,0,0,0,0,0,0,0,0,0,0,0,0,0,0,0,0,0,0,0,0,0,0,0,0,0,0,0,0,0,0,0,0,0,0,0,0,0,0,0,0,0,0,0,0,0,0,0,0,0,0,0,-1.8639,-1.8639,0,-1.8676,-1.8677,-1.8677,-1.8712,-1.8712,-1.8712,-1.8713,-1.875,-1.8751,-1.8751,0,0,0,0,0,0,0,0,0,0,0,0,0,-1.8595,-1.8596,-1.8639,-1.8639,-1.864,-1.8676,-1.8677,-1.8677,-1.8711,-1.8712,-1.8712,-1.8713,-1.875,-1.8751,-1.8751,0,0,0,0,0,0,0,0,0,0,0,0,0,-1.8622,-1.8596,-1.8638,-1.8661,-1.8664,-1.8676,-1.8677,-1.8677,-1.8711,-1.8712,-1.8713,-1.8713,-1.875,-1.875,-1.8751,-1.8744,0,0,-1.8754,-1.8754,0,0,0,0,0,0,0,0,-1.862,-1.8623,-1.8657,-1.866,-1.8662,-1.869,-1.8675,-1.87,-1.8711,-1.8693,-1.8713,-1.8714,-1.8729,-1.8732,-1.8738,-1.8746,-1.8747,-1.8754,-1.8755,-1.8755,-1.8755,0,0,0,0,0,0,0,-1.8618,-1.8622,-1.8653,-1.8658,-1.8661,-1.8669,-1.8673,-1.868,-1.8707,-1.8695,-1.8697,-1.8701,-1.8731,-1.8737,-1.8739,-1.8748,-1.8754,-1.8755,-1.8755,-1.8756,-1.8751,-1.8751,0,0,0,0,0,0,-1.8613,-1.862,-1.8652,-1.8655,-1.8642,-1.8669,-1.8674,-1.868,-1.8707,-1.8712,-1.8701,-1.8703,-1.8735,-1.8738,-1.874,-1.8732,-1.8755,-1.8756,-1.8756,-1.8752,-1.8751,-1.875,0,0,0,0,0,0,-1.8612,-1.8616,-1.8651,-1.8638,-1.8643,-1.8669,-1.8676,-1.8681,-1.8687,-1.8712,-1.8717,-1.8702,-1.8735,-1.8739,-1.8743,-1.8734,-1.8756,-1.8757,-1.8753,-1.8752,-1.8751,-1.8717,0,0,0,0,0,0,-1.8611,-1.8615,-1.8613,-1.8638,-1.8644,-1.8653,-1.8675,-1.8681,-1.8688,-1.8691,-1.8714,-1.8718,-1.8736,-1.8741,-1.8744,-1.8736,-1.8758,-1.8754,-1.8752,-1.8751,-1.8719,-1.8715,-1.8712,0,0,0,0,0,-1.8609,-1.8602,-1.8612,-1.8616,-1.8641,-1.8652,-1.8656,-1.8677,-1.8687,-1.8685,-1.8701,-1.8718,-1.8735,-1.8741,-1.8744,-1.8737,-1.8754,-1.8753,-1.8751,-1.8721,-1.8716,-1.8712,0,0,0,0,0,0,-1.8575,-1.8605,-1.8618,-1.8618,-1.8632,-1.8658,-1.8656,-1.8671,-1.8682,-1.8684,-1.871,-1.8714,-1.8715,-1.8727,-1.8733,-1.8731,-1.8747,-1.8746,-1.8723,-1.8718,-1.8715,-1.8711,-1.8759,0,0,0,0,0,-1.8567,-1.8574,-1.86,-1.8598,-1.8605,-1.8629,-1.8635,-1.865,-1.8665,-1.8671,-1.8688,-1.8702,-1.871,-1.8715,-1.8725,-1.8722,-1.8727,-1.8718,-1.8714,-1.8711,-1.8709,-1.8708,-1.8704,-1.8746,-1.8746,-1.8746,0,0,-1.8552,-1.857,-1.8572,-1.8592,-1.8605,-1.861,-1.8634,-1.8639,-1.8643,-1.8672,-1.8676,-1.8689,-1.8706,-1.8706,-1.8707,-1.8716,-1.8699,-1.8709,-1.8707,-1.8707,-1.8706,-1.8702,-1.8698,-1.8745,-1.8745,-1.8745,0,0,-1.8526,-1.8541,-1.854,-1.8553,-1.8572,-1.8588,-1.8588,-1.8611,-1.862,-1.8626,-1.8647,-1.8652,-1.8667,-1.8678,-1.8686,-1.8665,-1.868,-1.8667,-1.8647,-1.8645,-1.8642,-1.8639,-1.863,-1.8627,-1.8666,-1.8666,-1.8666,0,-1.8504,-1.8514,-1.8538,-1.8541,-1.8549,-1.8576,-1.8575,-1.8586,-1.8607,-1.8611,-1.8621,-1.864,-1.8654,-1.8656,-1.8651,-1.8657,-1.8657,-1.8664,-1.8641,-1.8638,-1.8636,-1.8627,-1.8624,-1.8664,-1.8664,-1.8664,-1.8665,0,-1.8485,-1.8492,-1.8489,-1.8508,-1.8516,-1.8517,-1.8541,-1.8546,-1.8561,-1.8576,-1.858,-1.8598,-1.8611,-1.8613,-1.8627,-1.8617,-1.8622,-1.8636,-1.8652,-1.8629,-1.8622,-1.8619,-1.8661,-1.8662,-1.8663,-1.8663,0,0,-1.8437,-1.8471,-1.8469,-1.8478,-1.8501,-1.8506,-1.8509,-1.8522,-1.8525,-1.8539,-1.8541,-1.8553,-1.8566,-1.8575,-1.8591,-1.8589,-1.857,-1.8603,-1.8604,-1.8595,-1.8558,-1.8546,-1.8542,-1.8581,-1.858,-1.858,-1.8556,0,-1.8414,-1.842,-1.8442,-1.8441,-1.8446,-1.8473,-1.8475,-1.8489,-1.8503,-1.851,-1.8526,-1.8533,-1.8551,-1.8556,-1.8556,-1.8572,-1.8562,-1.8574,-1.8582,-1.8582,-1.8574,-1.8538,-1.8525,-1.8502,-1.8554,-1.8553,-1.8553,0,-1.8387,-1.8399,-1.8399,-1.8421,-1.8425,-1.8426,-1.8439,-1.8446,-1.8463,-1.8473,-1.8483,-1.8501,-1.8505,-1.8522,-1.8526,-1.8534,-1.8539,-1.8547,-1.8547,-1.8547,-1.8564,-1.8535,-1.8495,-1.8491,-1.8549,-1.8549,-1.855,0,-1.835,-1.8366,-1.8368,-1.8375,-1.8402,-1.8402,-1.8413,-1.8431,-1.8437,-1.8449,-1.8453,-1.8466,-1.8472,-1.8481,-1.8502,-1.8512,-1.8504,-1.8523,-1.8512,-1.8511,-1.8507,-1.8506,-1.8465,-1.8513,-1.8513,-1.8513,-1.8513,0,-1.832,-1.8318,-1.8351,-1.8352,-1.8351,-1.8376,-1.8374,-1.8388,-1.8403,-1.8407,-1.8431,-1.8434,-1.8462,-1.8468,-1.8485,-1.8485,-1.8489,-1.8497,-1.85,-1.8493,-1.8492,-1.8495,-1.8496,-1.8512,-1.8513,-1.8513,-1.8513,0,-1.8277,-1.83,-1.8303,-1.8328,-1.8335,-1.8332,-1.8354,-1.8355,-1.8372,-1.8376,-1.8378,-1.8404,-1.8412,-1.8434,-1.8449,-1.846,-1.8455,-1.8464,-1.8449,-1.8451,-1.8438,-1.8438,-1.8395,-1.839,-1.8444,-1.8443,-1.8443,0,-1.8256,-1.8255,-1.828,-1.8284,-1.8295,-1.8301,-1.8308,-1.8333,-1.8339,-1.8358,-1.8357,-1.8367,-1.8377,-1.8389,-1.8408,-1.8419,-1.8427,-1.8412,-1.8429,-1.8421,-1.8425,-1.8423,-1.8423,-1.8407,-1.8406,-1.8406,-1.8405,0,-1.8214,-1.8225,-1.8234,-1.8246,-1.8254,-1.8265,-1.8277,-1.8279,-1.8308,-1.8313,-1.8322,-1.8329,-1.8343,-1.8353,-1.8367,-1.8378,-1.8396,-1.84,-1.8398,-1.8388,-1.8379,-1.8382,-1.8436,-1.84,-1.8401,-1.8401,-1.8401,-1.8401,-1.818,-1.818,-1.8198,-1.8206,-1.8219,-1.823,-1.8232,-1.8249,-1.8257,-1.827,-1.8285,-1.8292,-1.8309,-1.8329,-1.834,-1.8345,-1.8355,-1.8352,-1.835,-1.8349,-1.8344,-1.838,-1.8348,-1.8349,-1.8349,-1.8349,-1.8349,0,-1.8138,-1.8151,-1.8159,-1.8175,-1.8182,-1.8199,-1.8214,-1.8218,-1.8224,-1.8238,-1.8247,-1.8257,-1.8266,-1.8287,-1.8298,-1.8299,-1.8307,-1.8301,-1.8299,-1.8301,-1.8336,-1.8336,-1.8294,-1.8294,-1.8294,-1.8294,-1.8294,-1.8294,-1.8117,-1.8117,-1.813,-1.8137,-1.815,-1.8157,-1.8164,-1.8174,-1.8185,-1.8195,-1.8203,-1.8217,-1.8234,-1.8246,-1.8256,-1.8262,-1.8264,-1.8254,-1.8262,-1.8294,-1.8299,-1.8304,-1.8304,-1.8255,-1.8255,-1.8227,-1.8227,-1.8226]}]]